| time (UTC) | temp F | wind direction | speed MPH | gust MPH | rain 1hr in | rain 24hr in | rain mn in | humidity % | barometer mb |
| 20260507012501 | 69 | 291 | 7.0 | 12.0 | 0.00 | 0.00 | 0.00 | 1015.3 | |
| 20260507012002 | 69 | 276 | 7.0 | 14.0 | 0.00 | 0.00 | 0.00 | 1015.6 | |
| 20260507011502 | 70 | 278 | 7.0 | 14.0 | 0.00 | 0.00 | 0.00 | 1015.3 | |
| 20260507011004 | 70 | 273 | 6.0 | 13.0 | 0.00 | 0.00 | 0.00 | 1015.3 | |
| 20260507010503 | 70 | 260 | 8.0 | 13.0 | 0.00 | 0.00 | 0.00 | 1014.9 | |
| 20260507010002 | 71 | 273 | 7.0 | 13.0 | 0.00 | 0.00 | 0.00 | 1015.3 | |
| 20260507005524 | 71 | 272 | 8.0 | 13.0 | 0.00 | 0.00 | 0.00 | 1014.9 | |
| 20260507005002 | 72 | 258 | 8.0 | 12.0 | 0.00 | 0.00 | 0.00 | 1014.9 | |
| 20260507004502 | 72 | 247 | 8.0 | 14.0 | 0.00 | 0.00 | 0.00 | 1015.3 | |
| 20260507004002 | 72 | 274 | 7.0 | 14.0 | 0.00 | 0.00 | 0.00 | 1014.9 | |
| 20260507003502 | 72 | 291 | 5.0 | 10.0 | 0.00 | 0.00 | 0.00 | 1014.9 | |
| 20260507003001 | 72 | 273 | 6.0 | 14.0 | 0.00 | 0.00 | 0.00 | 1014.3 | |
| 20260507002502 | 72 | 260 | 7.0 | 14.0 | 0.00 | 0.00 | 0.00 | 1014.3 | |
| 20260507002002 | 72 | 279 | 6.0 | 13.0 | 0.00 | 0.00 | 0.00 | 1014.3 | |
| 20260507001502 | 72 | 278 | 7.0 | 13.0 | 0.00 | 0.00 | 0.00 | 1014.3 | |
| 20260507001003 | 72 | 262 | 7.0 | 13.0 | 0.00 | 0.00 | 0.00 | 1013.9 | |
| 20260507000524 | 73 | 261 | 6.0 | 12.0 | 0.00 | 0.00 | 0.00 | 1013.6 | |
| 20260507000002 | 74 | 251 | 8.0 | 12.0 | 0.00 | 0.00 | 0.00 | 1013.9 | |
| 20260506235501 | 74 | 258 | 6.0 | 12.0 | 0.00 | 0.00 | 0.00 | 1014.3 | |
| 20260506235003 | 75 | 212 | 8.0 | 12.0 | 0.00 | 0.00 | 0.00 | 1014.3 | |
| 20260506234524 | 75 | 222 | 6.0 | 15.0 | 0.00 | 0.00 | 0.00 | 1014.3 | |
| 20260506234024 | 74 | 252 | 7.0 | 15.0 | 0.00 | 0.00 | 0.00 | 1013.9 | |
| 20260506233502 | 75 | 213 | 5.0 | 10.0 | 0.00 | 0.00 | 0.00 | 1013.6 | |
| 20260506233002 | 75 | 218 | 6.0 | 15.0 | 0.00 | 0.00 | 0.00 | 1013.2 | |
| 20260506232502 | 75 | 208 | 7.0 | 15.0 | 0.00 | 0.00 | 0.00 | 1014.3 | |
| 20260506232003 | 75 | 214 | 7.0 | 13.0 | 0.00 | 0.00 | 0.00 | 1013.9 | |
| 20260506231502 | 75 | 210 | 7.0 | 14.0 | 0.00 | 0.00 | 0.00 | 1013.9 | |
| 20260506231001 | 74 | 226 | 9.0 | 14.0 | 0.00 | 0.00 | 0.00 | 1013.9 | |
| 20260506230502 | 75 | 204 | 7.0 | 15.0 | 0.00 | 0.00 | 0.00 | 1013.9 | |
| 20260506230002 | 75 | 215 | 8.0 | 15.0 | 0.00 | 0.00 | 0.00 | 1014.6 | |
| 20260506225523 | 75 | 184 | 7.0 | 14.0 | 0.00 | 0.00 | 0.00 | 1013.9 | |
| 20260506225003 | 75 | 196 | 6.0 | 14.0 | 0.00 | 0.00 | 0.00 | 1013.9 | |
| 20260506224501 | 74 | 184 | 7.0 | 14.0 | 0.00 | 0.00 | 0.00 | 1013.6 | |
| 20260506224002 | 75 | 209 | 9.0 | 13.0 | 0.00 | 0.00 | 0.00 | 1014.3 | |
| 20260506223502 | 74 | 203 | 7.0 | 14.0 | 0.00 | 0.00 | 0.00 | 1014.9 | |
| 20260506223001 | 74 | 222 | 8.0 | 14.0 | 0.00 | 0.00 | 0.00 | 1014.3 | |
| 20260506222524 | 74 | 225 | 7.0 | 12.0 | 0.00 | 0.00 | 0.00 | 1014.3 | |
| 20260506222003 | 73 | 235 | 5.0 | 13.0 | 0.00 | 0.00 | 0.00 | 1014.9 | |
| 20260506221504 | 73 | 235 | 6.0 | 13.0 | 0.00 | 0.00 | 0.00 | 1015.6 | |
| 20260506221002 | 74 | 225 | 6.0 | 15.0 | 0.00 | 0.00 | 0.00 | 1015.6 | |
| 20260506220503 | 73 | 190 | 6.0 | 17.0 | 0.00 | 0.00 | 0.00 | 1015.3 | |
| 20260506220003 | 73 | 226 | 8.0 | 17.0 | 0.00 | 0.00 | 0.00 | 1014.9 | |
| 20260506215503 | 72 | 217 | 7.0 | 15.0 | 0.00 | 0.00 | 0.00 | 1015.3 | |
| 20260506215002 | 72 | 233 | 7.0 | 14.0 | 0.00 | 0.00 | 0.00 | 1015.6 | |
| 20260506214501 | 72 | 234 | 11.0 | 14.0 | 0.00 | 0.00 | 0.00 | 1015.6 | |
| 20260506214002 | 73 | 231 | 8.0 | 14.0 | 0.00 | 0.00 | 0.00 | 1015.3 | |
| 20260506213502 | 73 | 210 | 6.0 | 14.0 | 0.00 | 0.00 | 0.00 | 1015.3 | |
| 20260506213001 | 73 | 233 | 7.0 | 14.0 | 0.00 | 0.00 | 0.00 | 1015.3 | |
| 20260506212524 | 73 | 218 | 6.0 | 12.0 | 0.00 | 0.00 | 0.00 | 1015.6 | |
| 20260506212023 | 72 | 232 | 8.0 | 13.0 | 0.00 | 0.00 | 0.00 | 1015.6 | |
| 20260506211502 | 73 | 221 | 6.0 | 14.0 | 0.00 | 0.00 | 0.00 | 1015.6 | |
| 20260506211002 | 72 | 235 | 8.0 | 14.0 | 0.00 | 0.00 | 0.00 | 1016.0 | |
| 20260506210523 | 74 | 210 | 7.0 | 12.0 | 0.00 | 0.00 | 0.00 | 1015.3 | |
| 20260506210001 | 73 | 210 | 6.0 | 12.0 | 0.00 | 0.00 | 0.00 | 1015.3 | |
| 20260506205503 | 72 | 192 | 5.0 | 12.0 | 0.00 | 0.00 | 0.00 | 1015.3 | |
| 20260506205003 | 73 | 222 | 5.0 | 11.0 | 0.00 | 0.00 | 0.00 | 1015.3 | |
| 20260506204503 | 72 | 218 | 5.0 | 11.0 | 0.00 | 0.00 | 0.00 | 1015.6 | |
| 20260506204024 | 72 | 227 | 5.0 | 11.0 | 0.00 | 0.00 | 0.00 | 1016.0 | |
| 20260506203502 | 73 | 176 | 5.0 | 12.0 | 0.00 | 0.00 | 0.00 | 1016.0 | |
| 20260506203002 | 72 | 197 | 7.0 | 12.0 | 0.00 | 0.00 | 0.00 | 1016.3 | |
| 20260506202502 | 71 | 253 | 5.0 | 11.0 | 0.00 | 0.00 | 0.00 | 1016.6 | |
| 20260506202002 | 72 | 213 | 5.0 | 12.0 | 0.00 | 0.00 | 0.00 | 1016.6 | |
| 20260506201523 | 73 | 222 | 8.0 | 16.0 | 0.00 | 0.00 | 0.00 | 1016.3 | |
| 20260506201023 | 73 | 183 | 6.0 | 16.0 | 0.00 | 0.00 | 0.00 | 1016.0 | |
| 20260506200523 | 72 | 225 | 7.0 | 14.0 | 0.00 | 0.00 | 0.00 | 1016.0 | |
| 20260506200003 | 73 | 190 | 6.0 | 11.0 | 0.00 | 0.00 | 0.00 | 1016.0 | |
| 20260506195503 | 73 | 138 | 4.0 | 11.0 | 0.00 | 0.00 | 0.00 | 1016.0 | |
| 20260506195002 | 72 | 201 | 6.0 | 12.0 | 0.00 | 0.00 | 0.00 | 1016.3 | |
| 20260506194502 | 71 | 205 | 7.0 | 12.0 | 0.00 | 0.00 | 0.00 | 1016.0 | |
| 20260506194003 | 71 | 225 | 6.0 | 12.0 | 0.00 | 0.00 | 0.00 | 1016.0 | |
| 20260506193501 | 70 | 215 | 6.0 | 13.0 | 0.00 | 0.00 | 0.00 | 1016.3 | |
| 20260506193002 | 70 | 142 | 4.0 | 13.0 | 0.00 | 0.00 | 0.00 | 1016.3 | |
| 20260506192501 | 70 | 222 | 6.0 | 10.0 | 0.00 | 0.00 | 0.00 | 1016.6 | |
| 20260506192003 | 71 | 227 | 4.0 | 10.0 | 0.00 | 0.00 | 0.00 | 1016.3 | |
| 20260506191501 | 71 | 222 | 5.0 | 10.0 | 0.00 | 0.00 | 0.00 | 1016.6 | |
| 20260506191023 | 71 | 167 | 5.0 | 10.0 | 0.00 | 0.00 | 0.00 | 1016.6 | |
| 20260506190502 | 70 | 228 | 6.0 | 11.0 | 0.00 | 0.00 | 0.00 | 1016.6 | |
| 20260506190023 | 70 | 206 | 5.0 | 11.0 | 0.00 | 0.00 | 0.00 | 1017.6 | |
| 20260506185523 | 70 | 218 | 6.0 | 12.0 | 0.00 | 0.00 | 0.00 | 1017.0 | |
| 20260506185002 | 72 | 225 | 8.0 | 12.0 | 0.00 | 0.00 | 0.00 | 1017.0 | |
| 20260506184502 | 72 | 180 | 4.0 | 11.0 | 0.00 | 0.00 | 0.00 | 1017.3 | |
| 20260506184002 | 71 | 196 | 4.0 | 10.0 | 0.00 | 0.00 | 0.00 | 1016.6 | |
| 20260506183501 | 71 | 194 | 5.0 | 10.0 | 0.00 | 0.00 | 0.00 | 1017.0 | |
| 20260506183002 | 70 | 250 | 2.0 | 11.0 | 0.00 | 0.00 | 0.00 | 1017.0 | |
| 20260506182501 | 71 | 179 | 5.0 | 11.0 | 0.00 | 0.00 | 0.00 | 1017.3 | |
| 20260506182002 | 70 | 206 | 6.0 | 13.0 | 0.00 | 0.00 | 0.00 | 1017.0 | |
| 20260506181502 | 70 | 185 | 5.0 | 13.0 | 0.00 | 0.00 | 0.00 | 1016.6 | |
| 20260506181023 | 69 | 207 | 6.0 | 12.0 | 0.00 | 0.00 | 0.00 | 1017.3 | |
| 20260506180523 | 68 | 221 | 4.0 | 9.0 | 0.00 | 0.00 | 0.00 | 1017.0 | |
| 20260506180002 | 68 | 234 | 3.0 | 10.0 | 0.00 | 0.00 | 0.00 | 1016.6 | |
| 20260506175523 | 67 | 200 | 4.0 | 11.0 | 0.00 | 0.00 | 0.00 | 1017.3 | |
| 20260506175002 | 66 | 265 | 6.0 | 11.0 | 0.00 | 0.00 | 0.00 | 1017.0 | |
| 20260506174501 | 67 | 246 | 3.0 | 7.0 | 0.00 | 0.00 | 0.00 | 1017.0 | |
| 20260506174002 | 67 | 118 | 2.0 | 8.0 | 0.00 | 0.00 | 0.00 | 1017.3 | |
| 20260506173502 | 66 | 314 | 1.0 | 8.0 | 0.00 | 0.00 | 0.00 | 1017.0 | |
| 20260506173002 | 65 | 193 | 4.0 | 8.0 | 0.00 | 0.00 | 0.00 | 1017.0 | |
| 20260506172502 | 65 | 270 | 2.0 | 5.0 | 0.00 | 0.00 | 0.00 | 1017.6 | |
| 20260506172002 | 66 | 0 | 1.0 | 6.0 | 0.00 | 0.00 | 0.00 | 1017.3 | |
| 20260506171524 | 66 | 79 | 4.0 | 9.0 | 0.00 | 0.00 | 0.00 | 1017.3 | |
| 20260506171003 | 66 | 75 | 4.0 | 9.0 | 0.00 | 0.00 | 0.00 | 1017.0 | |
| 20260506170502 | 65 | 72 | 2.0 | 5.0 | 0.00 | 0.00 | 0.00 | 1016.3 | |
| 20260506170002 | 65 | 354 | 2.0 | 7.0 | 0.00 | 0.00 | 0.00 | 1016.6 | |
| 20260506165502 | 65 | 89 | 4.0 | 7.0 | 0.00 | 0.00 | 0.00 | 1017.0 | |
| 20260506165003 | 65 | 85 | 4.0 | 7.0 | 0.00 | 0.00 | 0.00 | 1017.0 | |
| 20260506164502 | 65 | 100 | 3.0 | 7.0 | 0.00 | 0.00 | 0.00 | 1017.0 | |
| 20260506164024 | 65 | 80 | 4.0 | 7.0 | 0.00 | 0.00 | 0.00 | 1016.6 | |
| 20260506163502 | 65 | 121 | 2.0 | 5.0 | 0.00 | 0.00 | 0.00 | 1017.0 | |
| 20260506163002 | 64 | 129 | 2.0 | 7.0 | 0.00 | 0.00 | 0.00 | 1017.3 | |
| 20260506162502 | 64 | 169 | 3.0 | 7.0 | 0.00 | 0.00 | 0.00 | 1016.6 | |
| 20260506162002 | 63 | 240 | 2.0 | 4.0 | 0.00 | 0.00 | 0.00 | 1017.0 | |
| 20260506161523 | 62 | 92 | 2.0 | 6.0 | 0.00 | 0.00 | 0.00 | 1016.6 | |
| 20260506161024 | 62 | 86 | 1.0 | 6.0 | 0.00 | 0.00 | 0.00 | 1017.0 | |
| 20260506160501 | 62 | 85 | 2.0 | 6.0 | 0.00 | 0.00 | 0.00 | 1017.3 | |
| 20260506160002 | 62 | 103 | 3.0 | 5.0 | 0.00 | 0.00 | 0.00 | 1017.0 | |
| 20260506155502 | 62 | 74 | 2.0 | 5.0 | 0.00 | 0.00 | 0.00 | 1017.3 | |
| 20260506155003 | 61 | 266 | 1.0 | 7.0 | 0.00 | 0.00 | 0.00 | 1016.6 | |
| 20260506154501 | 61 | 68 | 3.0 | 7.0 | 0.00 | 0.00 | 0.00 | 1017.0 | |
| 20260506154003 | 61 | 73 | 3.0 | 8.0 | 0.00 | 0.00 | 0.00 | 1017.0 | |
| 20260506153523 | 61 | 69 | 2.0 | 8.0 | 0.00 | 0.00 | 0.00 | 1017.0 | |
| 20260506153002 | 61 | 22 | 2.0 | 5.0 | 0.00 | 0.00 | 0.00 | 1017.3 | |
| 20260506152502 | 61 | 84 | 3.0 | 5.0 | 0.00 | 0.00 | 0.00 | 1017.0 | |
| 20260506152002 | 60 | 80 | 4.0 | 5.0 | 0.00 | 0.00 | 0.00 | 1017.3 | |
| 20260506151504 | 60 | 91 | 3.0 | 5.0 | 0.00 | 0.00 | 0.00 | 1017.6 | |
| 20260506151025 | 60 | 83 | 2.0 | 6.0 | 0.00 | 0.00 | 0.00 | 1017.0 | |
| 20260506150502 | 59 | 63 | 2.0 | 6.0 | 0.00 | 0.00 | 0.00 | 1017.3 | |
| 20260506150002 | 59 | 69 | 2.0 | 5.0 | 0.00 | 0.00 | 0.00 | 1017.0 | |
| 20260506145502 | 58 | 128 | 2.0 | 5.0 | 0.00 | 0.00 | 0.00 | 1017.0 | |
| 20260506145002 | 58 | 103 | 3.0 | 5.0 | 0.00 | 0.00 | 0.00 | 1017.3 | |
| 20260506144523 | 58 | 71 | 3.0 | 5.0 | 0.00 | 0.00 | 0.00 | 1017.0 | |
| 20260506144024 | 57 | 71 | 2.0 | 4.0 | 0.00 | 0.00 | 0.00 | 1017.0 | |
| 20260506143502 | 57 | 78 | 2.0 | 4.0 | 0.00 | 0.00 | 0.00 | 1016.6 | |
| 20260506143002 | 56 | 74 | 1.0 | 6.0 | 0.00 | 0.00 | 0.00 | 1017.0 | |
| 20260506142524 | 56 | 85 | 2.0 | 6.0 | 0.00 | 0.00 | 0.00 | 1016.6 | |
| 20260506142003 | 55 | 74 | 3.0 | 5.0 | 0.00 | 0.00 | 0.00 | 1016.6 | |
| 20260506141523 | 55 | 66 | 3.0 | 4.0 | 0.00 | 0.00 | 0.00 | 1016.6 | |
| 20260506141003 | 55 | 72 | 2.0 | 5.0 | 0.00 | 0.00 | 0.00 | 1016.6 | |
| 20260506140502 | 55 | 19 | 2.0 | 5.0 | 0.00 | 0.00 | 0.00 | 1016.6 | |
| 20260506140002 | 55 | 59 | 3.0 | 5.0 | 0.00 | 0.00 | 0.00 | 1016.6 | |
| 20260506135502 | 55 | 54 | 2.0 | 3.0 | 0.00 | 0.00 | 0.00 | 1016.6 | |
| 20260506135003 | 54 | 61 | 1.0 | 3.0 | 0.00 | 0.00 | 0.00 | 1016.6 | |
| 20260506134502 | 54 | 53 | 1.0 | 3.0 | 0.00 | 0.00 | 0.00 | 1016.6 | |
| 20260506134002 | 54 | 73 | 2.0 | 4.0 | 0.00 | 0.00 | 0.00 | 1017.0 | |
| 20260506133501 | 54 | 42 | 2.0 | 4.0 | 0.00 | 0.00 | 0.00 | 1016.6 | |
| 20260506133002 | 54 | 46 | 1.0 | 2.0 | 0.00 | 0.00 | 0.00 | 1016.6 | |
| 20260506132502 | 54 | 55 | 1.0 | 2.0 | 0.00 | 0.00 | 0.00 | 1016.6 | |
| 20260506132003 | 54 | 360 | 0.0 | 1.0 | 0.00 | 0.00 | 0.00 | 1017.0 | |
| 20260506131502 | 54 | 158 | 0.0 | 2.0 | 0.00 | 0.00 | 0.00 | 1016.3 | |
| 20260506131002 | 54 | 158 | 0.0 | 2.0 | 0.00 | 0.00 | 0.00 | 1016.3 | |
| 20260506130501 | 54 | 96 | 1.0 | 2.0 | 0.00 | 0.00 | 0.00 | 1016.0 | |
| 20260506130002 | 54 | 113 | 1.0 | 3.0 | 0.00 | 0.00 | 0.00 | 1015.6 | |
| 20260506125503 | 54 | 87 | 1.0 | 3.0 | 0.00 | 0.00 | 0.00 | 1016.0 | |
| 20260506125004 | 54 | 110 | 1.0 | 3.0 | 0.00 | 0.00 | 0.00 | 1016.3 | |
| 20260506124502 | 54 | 113 | 1.0 | 3.0 | 0.00 | 0.00 | 0.00 | 1016.6 | |
| 20260506124004 | 54 | 113 | 1.0 | 3.0 | 0.00 | 0.00 | 0.00 | 1016.6 | |
| 20260506123524 | 54 | 113 | 2.0 | 3.0 | 0.00 | 0.00 | 0.00 | 1016.6 | |
| 20260506123002 | 54 | 81 | 1.0 | 3.0 | 0.00 | 0.00 | 0.00 | 1016.3 | |
| 20260506122503 | 54 | 84 | 2.0 | 3.0 | 0.00 | 0.00 | 0.00 | 1017.0 | |
| 20260506122001 | 54 | 88 | 1.0 | 2.0 | 0.00 | 0.00 | 0.00 | 1016.6 | |
| 20260506121502 | 54 | 90 | 1.0 | 2.0 | 0.00 | 0.00 | 0.00 | 1016.6 | |
| 20260506121002 | 54 | 90 | 0.0 | 2.0 | 0.00 | 0.00 | 0.00 | 1016.6 | |
| 20260506120502 | 54 | 77 | 1.0 | 2.0 | 0.00 | 0.00 | 0.00 | 1016.3 | |
| 20260506120002 | 54 | 44 | 1.0 | 2.0 | 0.00 | 0.00 | 0.00 | 1016.0 | |
| 20260506115501 | 54 | 54 | 1.0 | 3.0 | 0.00 | 0.00 | 0.00 | 1016.3 | |
| 20260506115003 | 54 | 62 | 2.0 | 3.0 | 0.00 | 0.00 | 0.00 | 1016.3 | |
| 20260506114502 | 54 | 76 | 2.0 | 3.0 | 0.00 | 0.00 | 0.00 | 1016.3 | |
| 20260506114003 | 54 | 82 | 2.0 | 3.0 | 0.00 | 0.00 | 0.00 | 1016.0 | |
| 20260506113502 | 55 | 91 | 2.0 | 3.0 | 0.00 | 0.00 | 0.00 | 1015.6 | |
| 20260506113001 | 55 | 68 | 1.0 | 3.0 | 0.00 | 0.00 | 0.00 | 1015.6 | |
| 20260506112503 | 55 | 76 | 1.0 | 3.0 | 0.00 | 0.00 | 0.00 | 1016.0 | |
| 20260506112003 | 55 | 90 | 2.0 | 3.0 | 0.00 | 0.00 | 0.00 | 1015.6 | |
| 20260506111502 | 55 | 85 | 2.0 | 4.0 | 0.00 | 0.00 | 0.00 | 1016.3 | |
| 20260506111002 | 55 | 74 | 2.0 | 4.0 | 0.00 | 0.00 | 0.00 | 1016.0 | |
| 20260506110502 | 55 | 88 | 2.0 | 3.0 | 0.00 | 0.00 | 0.00 | 1016.6 | |
| 20260506110001 | 55 | 87 | 1.0 | 3.0 | 0.00 | 0.00 | 0.00 | 1016.0 | |
| 20260506105502 | 55 | 87 | 2.0 | 3.0 | 0.00 | 0.00 | 0.00 | 1016.0 | |
| 20260506105001 | 55 | 97 | 2.0 | 2.0 | 0.00 | 0.00 | 0.00 | 1016.0 | |
| 20260506104502 | 56 | 68 | 1.0 | 2.0 | 0.00 | 0.00 | 0.00 | 1016.0 | |
| 20260506104002 | 56 | 44 | 1.0 | 2.0 | 0.00 | 0.00 | 0.00 | 1016.3 | |
| 20260506103502 | 56 | 42 | 1.0 | 2.0 | 0.00 | 0.00 | 0.00 | 1016.0 | |
| 20260506103001 | 56 | 46 | 1.0 | 2.0 | 0.00 | 0.00 | 0.00 | 1016.3 | |
| 20260506102523 | 56 | 68 | 1.0 | 2.0 | 0.00 | 0.00 | 0.00 | 1016.0 | |
| 20260506102023 | 56 | 64 | 1.0 | 2.0 | 0.00 | 0.00 | 0.00 | 1016.0 | |
| 20260506101502 | 56 | 49 | 1.0 | 2.0 | 0.00 | 0.00 | 0.00 | 1016.3 | |
| 20260506101003 | 56 | 82 | 1.0 | 3.0 | 0.00 | 0.00 | 0.00 | 1016.3 | |
| 20260506100501 | 56 | 46 | 1.0 | 3.0 | 0.00 | 0.00 | 0.00 | 1016.3 | |
| 20260506100002 | 56 | 63 | 2.0 | 2.0 | 0.00 | 0.00 | 0.00 | 1016.3 | |
| 20260506095504 | 56 | 44 | 2.0 | 3.0 | 0.00 | 0.00 | 0.00 | 1016.6 | |
| 20260506095002 | 56 | 44 | 1.0 | 3.0 | 0.00 | 0.00 | 0.00 | 1016.6 | |
| 20260506094502 | 56 | 41 | 1.0 | 2.0 | 0.00 | 0.00 | 0.00 | 1016.6 | |
| 20260506094001 | 56 | 113 | 1.0 | 1.0 | 0.00 | 0.00 | 0.00 | 1016.0 | |
| 20260506093503 | 56 | 113 | 0.0 | 0.0 | 0.00 | 0.00 | 0.00 | 1016.0 | |
| 20260506093023 | 56 | 113 | 0.0 | 0.0 | 0.00 | 0.00 | 0.00 | 1016.0 | |
| 20260506092503 | 56 | 113 | 0.0 | 1.0 | 0.00 | 0.00 | 0.00 | 1016.0 | |
| 20260506092002 | 56 | 113 | 0.0 | 1.0 | 0.00 | 0.00 | 0.00 | 1015.6 | |
| 20260506091502 | 56 | 113 | 0.0 | 2.0 | 0.00 | 0.00 | 0.00 | 1016.3 | |
| 20260506091002 | 56 | 114 | 1.0 | 2.0 | 0.00 | 0.00 | 0.00 | 1016.0 | |
| 20260506090502 | 56 | 137 | 1.0 | 2.0 | 0.00 | 0.00 | 0.00 | 1016.0 | |
| 20260506090002 | 56 | 158 | 1.0 | 2.0 | 0.00 | 0.00 | 0.00 | 1016.3 | |
| 20260506085502 | 57 | 158 | 1.0 | 2.0 | 0.00 | 0.00 | 0.00 | 1016.6 | |
| 20260506085002 | 57 | 158 | 1.0 | 2.0 | 0.00 | 0.00 | 0.00 | 1016.3 | |
| 20260506084502 | 57 | 158 | 1.0 | 2.0 | 0.00 | 0.00 | 0.00 | 1016.0 | |
| 20260506084024 | 57 | 158 | 1.0 | 2.0 | 0.00 | 0.00 | 0.00 | 1016.6 | |
| 20260506083503 | 57 | 174 | 1.0 | 2.0 | 0.00 | 0.00 | 0.00 | 1016.6 | |
| 20260506083001 | 57 | 180 | 0.0 | 2.0 | 0.00 | 0.00 | 0.00 | 1016.3 | |
| 20260506082502 | 57 | 156 | 1.0 | 3.0 | 0.00 | 0.00 | 0.00 | 1016.3 | |
| 20260506082002 | 57 | 163 | 1.0 | 3.0 | 0.00 | 0.00 | 0.00 | 1016.3 | |
| 20260506081501 | 57 | 161 | 1.0 | 2.0 | 0.00 | 0.00 | 0.00 | 1016.3 | |
| 20260506081003 | 57 | 137 | 1.0 | 2.0 | 0.00 | 0.00 | 0.00 | 1016.3 | |
| 20260506080524 | 57 | 122 | 1.0 | 3.0 | 0.00 | 0.00 | 0.00 | 1016.6 | |
| 20260506073503 | 58 | 99 | 1.0 | 3.0 | 0.00 | 0.00 | 0.00 | 1016.6 | |
| 20260506073002 | 58 | 113 | 0.0 | 3.0 | 0.00 | 0.00 | 0.00 | 1017.0 | |
| 20260506072523 | 58 | 127 | 2.0 | 3.0 | 0.00 | 0.00 | 0.00 | 1017.0 | |
| 20260506072002 | 58 | 98 | 1.0 | 3.0 | 0.00 | 0.00 | 0.00 | 1017.3 | |
| 20260506071502 | 58 | 97 | 1.0 | 3.0 | 0.00 | 0.00 | 0.00 | 1017.0 | |
| 20260506071002 | 58 | 90 | 1.0 | 3.0 | 0.00 | 0.00 | 0.00 | 1017.3 | |
| 20260506070502 | 58 | 93 | 1.0 | 3.0 | 0.00 | 0.00 | 0.00 | 1017.0 | |
| 20260506062503 | 59 | 112 | 0.0 | 2.0 | 0.00 | 0.00 | 0.00 | 1016.0 | |
| 20260506062002 | 59 | 113 | 1.0 | 2.0 | 0.00 | 0.00 | 0.00 | 1016.0 | |
| 20260506061503 | 59 | 100 | 1.0 | 2.0 | 0.00 | 0.00 | 0.00 | 1016.3 | |
| 20260506061002 | 59 | 129 | 1.0 | 3.0 | 0.00 | 0.00 | 0.00 | 1016.0 | |
| 20260506060523 | 59 | 107 | 2.0 | 3.0 | 0.00 | 0.00 | 0.00 | 1016.0 | |
| 20260506051002 | 60 | 234 | 1.0 | 3.0 | 0.00 | 0.00 | 0.00 | 1016.0 | |
| 20260506050523 | 60 | 202 | 0.0 | 3.0 | 0.00 | 0.00 | 0.00 | 1015.6 | |
| 20260506045002 | 61 | 202 | 2.0 | 4.0 | 0.00 | 0.00 | 0.00 | 1015.6 | |
| 20260506044504 | 61 | 209 | 2.0 | 4.0 | 0.00 | 0.00 | 0.00 | 1015.6 | |
| 20260506044003 | 61 | 203 | 1.0 | 4.0 | 0.00 | 0.00 | 0.00 | 1015.6 | |
| 20260506043502 | 61 | 216 | 2.0 | 4.0 | 0.00 | 0.00 | 0.00 | 1015.3 | |
| 20260506043002 | 61 | 214 | 2.0 | 4.0 | 0.00 | 0.00 | 0.00 | 1015.3 | |
| 20260506042524 | 61 | 209 | 2.0 | 4.0 | 0.00 | 0.00 | 0.00 | 1015.3 | |
| 20260506042024 | 61 | 217 | 2.0 | 3.0 | 0.00 | 0.00 | 0.00 | 1014.9 | |
| 20260506041502 | 62 | 205 | 2.0 | 5.0 | 0.00 | 0.00 | 0.00 | 1015.3 | |
| 20260506041002 | 62 | 207 | 3.0 | 5.0 | 0.00 | 0.00 | 0.00 | 1015.3 | |
| 20260506040502 | 62 | 205 | 2.0 | 4.0 | 0.00 | 0.00 | 0.00 | 1014.9 | |
| 20260506040023 | 62 | 205 | 3.0 | 5.0 | 0.00 | 0.00 | 0.00 | 1015.3 | |
| 20260506035524 | 62 | 205 | 3.0 | 5.0 | 0.00 | 0.00 | 0.00 | 1014.9 | |
| 20260506035003 | 62 | 215 | 3.0 | 5.0 | 0.00 | 0.00 | 0.00 | 1014.9 | |
| 20260506034502 | 62 | 207 | 2.0 | 4.0 | 0.00 | 0.00 | 0.00 | 1014.9 | |
| 20260506034002 | 62 | 219 | 1.0 | 4.0 | 0.00 | 0.00 | 0.00 | 1014.3 | |
| 20260506033524 | 63 | 220 | 3.0 | 5.0 | 0.00 | 0.00 | 0.00 | 1014.6 | |
| 20260506033002 | 63 | 235 | 2.0 | 5.0 | 0.00 | 0.00 | 0.00 | 1013.9 | |
| 20260506032524 | 63 | 247 | 4.0 | 6.0 | 0.00 | 0.00 | 0.00 | 1014.3 | |
| 20260506032002 | 63 | 268 | 2.0 | 8.0 | 0.00 | 0.00 | 0.00 | 1014.3 | |
| 20260506031524 | 63 | 281 | 4.0 | 8.0 | 0.00 | 0.00 | 0.00 | 1013.6 | |
| 20260506031002 | 63 | 278 | 3.0 | 5.0 | 0.00 | 0.00 | 0.00 | 1014.3 | |
| 20260506030502 | 63 | 281 | 3.0 | 5.0 | 0.00 | 0.00 | 0.00 | 1014.3 | |
| 20260506030002 | 63 | 308 | 1.0 | 6.0 | 0.00 | 0.00 | 0.00 | 1014.6 | |
| 20260506025504 | 63 | 268 | 3.0 | 6.0 | 0.00 | 0.00 | 0.00 | 1014.3 | |
| 20260506025002 | 63 | 282 | 3.0 | 7.0 | 0.00 | 0.00 | 0.00 | 1014.3 | |
| 20260506024502 | 63 | 280 | 4.0 | 7.0 | 0.00 | 0.00 | 0.00 | 1013.9 | |
| 20260506024003 | 64 | 250 | 4.0 | 7.0 | 0.00 | 0.00 | 0.00 | 1014.3 | |
| 20260506023503 | 64 | 268 | 4.0 | 7.0 | 0.00 | 0.00 | 0.00 | 1013.6 | |
| 20260506023002 | 64 | 274 | 2.0 | 7.0 | 0.00 | 0.00 | 0.00 | 1013.6 | |
| 20260506022501 | 64 | 286 | 4.0 | 7.0 | 0.00 | 0.00 | 0.00 | 1013.9 | |
| 20260506022003 | 64 | 277 | 4.0 | 7.0 | 0.00 | 0.00 | 0.00 | 1013.2 | |
| 20260506021503 | 64 | 282 | 3.0 | 7.0 | 0.00 | 0.00 | 0.00 | 1013.2 | |
| 20260506021002 | 64 | 264 | 2.0 | 10.0 | 0.00 | 0.00 | 0.00 | 1013.9 | |
| 20260506020503 | 64 | 281 | 5.0 | 10.0 | 0.00 | 0.00 | 0.00 | 1013.6 | |
| 20260506020002 | 64 | 282 | 6.0 | 9.0 | 0.00 | 0.00 | 0.00 | 1012.9 | |
| 20260506015502 | 64 | 284 | 6.0 | 9.0 | 0.00 | 0.00 | 0.00 | 1013.2 | |
| 20260506015003 | 64 | 289 | 5.0 | 9.0 | 0.00 | 0.00 | 0.00 | 1013.2 | |
| 20260506014523 | 64 | 284 | 4.0 | 14.0 | 0.00 | 0.00 | 0.00 | 1013.2 | |
| 20260506014002 | 65 | 284 | 6.0 | 14.0 | 0.00 | 0.00 | 0.00 | 1012.9 | |
| 20260506013502 | 66 | 276 | 5.0 | 13.0 | 0.00 | 0.00 | 0.00 | 1012.9 | |
| 20260506013002 | 66 | 275 | 8.0 | 13.0 | 0.00 | 0.00 | 0.00 | 1013.2 |